TimeEST,TemperatureF,Dew PointF,Humidity,Sea Level PressureIn,VisibilityMPH,Wind Direction,Wind SpeedMPH,Gust SpeedMPH,PrecipitationIn,Events,Conditions,WindDirDegrees,DateUTC
12:52 AM,25.0,12.0,58,30.46,10.0,WSW,4.6,-,N/A,,Mostly Cloudy,250,2013-11-29 05:52:00
1:52 AM,27.0,12.0,53,30.47,10.0,Calm,Calm,-,N/A,,Overcast,0,2013-11-29 06:52:00
2:52 AM,27.0,14.0,58,30.47,10.0,Calm,Calm,-,N/A,,Overcast,0,2013-11-29 07:52:00
3:52 AM,27.0,15.1,61,30.48,10.0,Calm,Calm,-,N/A,,Overcast,0,2013-11-29 08:52:00
4:52 AM,27.0,16.0,63,30.48,10.0,Calm,Calm,-,N/A,,Overcast,0,2013-11-29 09:52:00
5:52 AM,28.0,15.1,58,30.50,10.0,Calm,Calm,-,N/A,,Overcast,0,2013-11-29 10:52:00
6:52 AM,27.0,16.0,63,30.51,10.0,Calm,Calm,-,N/A,,Overcast,0,2013-11-29 11:52:00
7:52 AM,28.0,18.0,66,30.54,10.0,Calm,Calm,-,N/A,,Overcast,0,2013-11-29 12:52:00
8:52 AM,32.0,15.1,50,30.56,10.0,NW,5.8,-,N/A,,Overcast,310,2013-11-29 13:52:00
9:52 AM,34.0,12.0,40,30.57,10.0,Variable,6.9,-,N/A,,Clear,0,2013-11-29 14:52:00
10:52 AM,35.1,10.0,35,30.56,10.0,NNW,10.4,-,N/A,,Clear,330,2013-11-29 15:52:00
11:52 AM,36.0,12.0,37,30.54,10.0,West,5.8,-,N/A,,Clear,280,2013-11-29 16:52:00
12:52 PM,37.9,12.0,35,30.54,10.0,WNW,8.1,-,N/A,,Clear,290,2013-11-29 17:52:00
1:52 PM,37.9,12.0,35,30.54,10.0,Variable,5.8,-,N/A,,Clear,0,2013-11-29 18:52:00
2:52 PM,37.9,10.0,32,30.56,10.0,WNW,6.9,-,N/A,,Clear,300,2013-11-29 19:52:00
3:52 PM,35.1,10.0,35,30.58,10.0,NNW,4.6,-,N/A,,Clear,330,2013-11-29 20:52:00
4:52 PM,28.9,12.0,49,30.61,10.0,Calm,Calm,-,N/A,,Clear,0,2013-11-29 21:52:00
5:52 PM,25.0,12.9,60,30.64,10.0,Calm,Calm,-,N/A,,Clear,0,2013-11-29 22:52:00
6:52 PM,23.0,15.1,72,30.66,10.0,Calm,Calm,-,N/A,,Scattered Clouds,0,2013-11-29 23:52:00
7:52 PM,28.9,5.0,36,30.67,10.0,NNW,8.1,-,N/A,,Clear,340,2013-11-30 00:52:00
8:52 PM,27.0,3.9,37,30.69,10.0,Variable,3.5,-,N/A,,Clear,0,2013-11-30 01:52:00
9:52 PM,23.0,8.1,53,30.71,10.0,Calm,Calm,-,N/A,,Clear,0,2013-11-30 02:52:00
10:52 PM,19.0,9.0,65,30.73,10.0,Calm,Calm,-,N/A,,Clear,0,2013-11-30 03:52:00
11:52 PM,17.1,10.0,74,30.73,10.0,Calm,Calm,-,N/A,,Clear,0,2013-11-30 04:52:00